Theta_e
309 310 311 311 310 311 310 311 308 311 312 315 321 325 328 329 333 335 338 340 340 339 343 351 352 355 357 356 359 360 359 355 357 358 356 354 354 353 352 351 350 350 349 349
307 310 309 308 310 312 312 312 312 313 313 319 322 325 327 330 332 335 338 340 341 340 345 348 352 356 355 356 358 359 360 357 361 359 357 355 355 353 352 349 348 348 346 346
305 310 309 305 309 310 311 313 314 310 315 320 321 320 326 331 334 336 337 341 342 341 345 349 353 357 356 360 361 362 362 362 357 357 355 354 352 349 346 346 346 346 345 344
305 309 300 310 315 314 311 313 315 315 317 320 322 326 329 334 334 337 340 341 344 343 344 352 354 356 361 361 360 359 357 356 356 355 351 350 348 347 346 345 344 344 342 343
305 305 308 310 313 313 312 311 315 315 318 320 324 326 328 334 337 339 342 345 347 346 350 358 357 359 361 358 356 355 353 350 351 348 346 348 347 347 344 342 341 341 342 340
309 304 301 310 320 319 318 308 318 321 318 319 325 319 330 336 337 340 344 347 348 349 352 355 357 358 359 354 352 350 344 344 347 346 343 347 346 345 342 342 341 339 338 337
309 307 309 321 323 324 309 315 329 330 329 328 325 334 337 337 339 343 346 350 352 352 353 355 356 355 351 348 347 347 345 345 344 345 346 345 343 340 342 341 340 337 335 335
309 306 304 326 322 319 327 330 330 332 333 332 336 335 335 338 340 342 345 349 350 350 351 352 353 350 347 346 347 344 345 345 342 342 336 333 331 332 333 333 333 332 331 331
311 317 329 331 328 331 333 329 331 332 332 335 334 334 336 339 341 344 346 347 349 348 350 350 350 349 344 346 348 348 343 339 339 337 332 330 330 330 329 330 331 328 328 329
317 319 325 328 331 332 332 331 333 334 334 335 335 335 336 339 342 344 346 346 348 349 346 344 346 346 347 350 348 344 340 338 337 335 332 330 331 331 330 328 326 329 328 324
319 323 328 327 330 331 331 332 333 336 337 335 335 336 338 339 343 345 345 348 347 343 343 343 346 344 346 348 346 340 339 337 335 333 331 330 332 325 327 325 320 327 326 323
319 323 328 329 331 331 331 331 333 334 336 340 339 338 339 340 345 347 347 347 348 347 344 344 344 345 343 348 345 340 337 334 334 332 333 327 326 320 306 307 306 304 303 313
328 332 332 332 332 332 330 329 330 331 333 333 338 342 342 343 346 337 346 348 347 348 347 345 342 343 344 341 342 341 336 335 333 326 326 326 326 324 322 312 303 303 303 304
331 331 328 329 328 330 329 328 327 329 331 332 332 335 337 341 343 344 345 346 348 348 347 343 342 341 344 342 344 338 337 322 334 331 333 330 327 325 322 319 315 314 304 307
329 331 331 332 331 327 326 324 323 323 325 326 330 331 330 331 338 342 346 346 346 347 346 341 339 341 344 341 340 338 334 333 334 333 332 328 328 326 324 322 320 321 319 306
328 327 328 326 323 322 321 321 320 322 324 326 327 329 330 331 332 337 342 344 342 341 344 341 340 343 342 338 338 338 339 329 330 332 329 328 326 325 324 324 324 323 323 321
325 321 318 317 318 319 319 320 322 323 325 326 327 329 331 331 332 332 337 341 342 345 346 340 339 338 339 339 340 338 337 333 327 328 327 325 324 324 323 323 323 324 323 323
326 323 322 322 321 321 321 321 323 323 324 326 328 330 329 329 331 335 336 336 337 340 341 343 340 339 338 340 339 336 332 329 326 325 326 325 324 324 324 323 323 322 320 317
323 322 322 322 322 322 322 321 322 324 325 327 327 325 326 327 328 331 332 331 331 332 338 339 330 335 339 337 334 332 330 327 326 324 323 319 320 321 321 320 320 319 319 319
321 322 323 322 323 322 321 323 323 323 325 327 327 326 324 324 326 327 329 329 331 333 335 335 334 337 335 333 328 331 328 325 324 323 322 320 319 318 318 311 316 319 319 318
323 324 324 324 324 324 324 325 325 324 325 326 326 325 324 325 326 326 324 324 323 323 327 327 333 333 334 330 330 329 327 324 323 323 321 319 319 317 317 318 317 317 318 318
325 325 324 324 324 324 326 327 327 328 326 325 326 326 326 325 326 328 325 321 321 317 325 330 322 318 325 325 326 324 321 319 321 323 320 320 316 315 314 318 318 318 317 318
325 325 325 324 324 325 325 326 326 326 325 325 325 326 325 324 323 325 321 326 324 318 325 324 316 316 316 321 323 319 318 318 315 316 316 318 317 314 314 317 319 320 319 317
326 325 325 326 327 324 324 325 325 326 327 328 326 326 324 321 325 327 327 318 314 321 327 325 318 314 314 322 322 319 319 320 319 320 319 309 319 320 321 321 322 320 318 319
326 325 325 324 323 321 325 325 325 325 327 327 325 325 326 326 324 325 322 323 314 319 325 316 318 316 323 324 325 323 324 324 324 324 322 321 318 317 317 316 315 316 316 316
325 322 322 324 324 324 322 324 319 320 320 320 322 322 321 322 323 323 322 317 324 316 323 326 326 324 324 325 326 325 325 324 322 322 320 321 319 317 317 317 318 317 316 316
323 311 322 322 322 324 322 323 320 318 318 320 318 321 322 323 319 318 311 323 321 322 322 322 322 320 322 324 323 323 324 324 319 323 321 321 320 321 318 316 317 318 319 319
Wind_Speed
17 18 12 17 19 23 21 21 20 17 16 11 12 11 8 9 6 10 13 16 15 14 14 13 14 13 12 13 11 12 10 13 12 9 9 9 7 5 4 3 4 2 2 3
18 12 17 18 15 18 25 22 19 19 18 16 2 3 3 4 5 10 14 17 15 16 17 17 16 15 13 13 11 11 10 11 8 10 8 8 6 5 4 4 3 3 3 1
14 16 17 20 19 18 18 19 12 16 16 14 6 3 6 3 6 10 14 16 16 16 15 16 16 15 15 13 12 11 10 10 8 10 9 8 7 4 3 3 3 2 2 2
14 14 19 16 15 18 20 20 18 17 16 13 5 4 5 4 5 9 11 16 16 15 15 14 15 15 14 13 10 10 10 10 9 9 10 8 7 7 5 2 1 1 2 2
14 13 16 12 11 11 12 15 19 20 18 11 5 2 12 4 1 5 8 11 12 15 16 15 15 14 14 14 10 12 13 13 12 11 10 7 8 7 5 4 4 3 2 4
10 13 18 9 16 2 8 11 8 9 8 4 6 7 9 5 2 7 6 6 9 11 13 14 14 14 13 13 14 14 13 8 8 8 8 11 8 7 6 5 4 4 3 3
12 12 20 12 7 2 11 4 8 9 9 3 3 7 5 2 4 4 6 7 6 9 10 12 13 13 12 12 13 11 9 10 9 8 8 8 6 4 5 4 6 2 2 2
10 15 19 8 2 12 8 5 5 5 6 4 4 3 3 4 5 6 8 10 10 10 11 12 11 12 12 12 13 14 7 8 9 8 7 5 4 0 3 8 6 1 2 6
11 2 5 5 8 9 17 4 4 4 5 2 2 3 4 6 5 6 7 8 9 9 10 11 12 13 12 14 15 12 11 11 11 11 8 7 6 4 3 5 3 7 7 7
10 11 5 3 5 9 7 2 1 3 3 1 2 3 4 6 7 6 8 7 6 8 10 11 10 10 12 11 13 12 11 12 11 11 11 7 4 3 3 4 4 5 7 5
11 11 5 4 5 5 4 3 5 6 7 5 1 2 1 5 1 4 5 7 9 7 9 10 10 8 8 10 13 12 13 12 11 10 11 8 5 1 1 3 1 7 7 6
4 12 3 8 6 4 6 6 6 7 9 8 7 5 4 4 2 2 6 7 9 13 10 10 9 10 9 11 13 12 12 10 10 9 8 8 8 5 7 8 10 9 14 7
8 6 7 8 7 6 5 3 5 5 8 8 8 6 6 5 4 4 4 7 9 9 13 11 8 8 11 11 13 13 11 11 8 8 7 8 8 8 7 4 9 9 10 9
6 2 7 7 8 5 5 4 1 4 5 5 7 8 9 8 1 1 4 4 5 7 12 11 10 10 10 11 10 12 11 11 8 8 8 10 9 9 7 7 6 5 2 4
5 6 3 9 7 6 3 4 2 5 6 7 6 6 6 5 12 4 4 4 5 6 7 10 9 10 10 10 11 13 10 9 9 10 10 10 10 10 10 11 11 10 9 5
8 4 6 7 6 4 3 3 3 5 6 7 7 7 7 7 7 7 5 6 6 8 9 8 10 11 11 10 9 9 10 9 10 11 8 8 8 9 9 9 9 8 11 11
10 8 6 6 6 5 5 4 5 5 5 6 7 6 7 7 8 8 6 6 4 6 3 10 9 10 10 10 11 9 9 10 10 8 8 9 9 9 9 8 8 8 9 7
6 7 6 6 6 6 6 5 6 6 7 7 8 9 10 9 10 10 3 3 3 7 3 7 12 13 13 14 12 9 8 8 9 9 8 8 8 7 8 8 8 7 6 9
9 8 8 7 7 6 5 5 6 6 6 7 7 7 7 6 7 6 4 3 4 4 5 3 6 8 11 10 8 7 7 8 9 8 7 6 6 8 7 7 8 8 8 12
11 9 8 7 5 4 4 3 3 5 5 6 6 7 6 7 6 6 5 3 3 3 6 8 7 9 8 8 5 7 7 7 8 8 8 7 8 8 7 5 7 7 7 7
11 9 7 6 5 3 2 2 3 5 5 6 6 8 7 7 4 6 6 2 8 9 7 11 8 6 6 7 6 9 8 8 8 7 6 8 7 7 7 8 7 9 7 7
8 7 6 5 5 4 1 1 2 2 3 4 5 5 5 3 4 6 6 4 3 10 5 2 6 9 5 6 5 6 5 4 4 4 4 0 1 2 4 6 8 6 7 6
6 6 6 5 3 2 3 3 3 0 4 4 4 5 4 6 5 4 4 5 2 4 3 4 6 7 3 2 3 4 2 2 2 3 4 5 5 6 9 5 5 4 4 4
4 4 4 3 1 4 0 2 5 3 2 0 2 4 2 3 2 6 5 6 4 1 3 3 3 2 2 2 3 3 3 3 3 4 6 7 7 5 1 4 2 3 5 9
5 6 5 4 5 3 3 3 6 7 6 6 4 4 1 5 4 3 6 6 6 8 7 7 5 5 5 5 5 5 6 5 4 2 1 1 2 2 2 3 2 0 1 4
5 4 4 4 1 3 5 1 2 4 3 4 3 4 5 5 5 5 5 3 5 2 5 10 9 8 4 4 4 5 5 5 5 5 4 4 3 2 2 2 2 2 3 5
5 3 2 2 3 1 3 3 3 1 3 2 3 4 3 1 5 3 3 2 3 2 0 2 4 6 1 2 7 5 5 5 8 8 7 8 9 8 8 9 9 8 8 9
Wind_Direction
255 276 249 238 215 230 242 252 265 280 299 315 45 40 13 309 151 170 181 173 176 172 160 158 160 167 177 175 180 161 188 152 169 174 138 127 139 134 137 145 101 88 120 86
255 260 259 265 266 234 226 238 247 262 280 302 59 16 349 319 184 191 185 184 182 175 169 170 173 173 177 170 164 165 185 158 147 122 137 144 143 144 139 135 114 111 103 89
241 245 243 243 242 245 255 258 249 249 258 263 313 323 343 306 229 198 191 191 188 184 179 178 176 182 179 170 166 164 164 137 131 147 151 145 136 136 135 142 122 139 145 160
259 249 244 253 257 226 245 256 243 249 256 250 186 295 276 284 249 194 199 190 190 184 181 171 177 185 181 154 156 161 140 137 143 149 147 149 149 151 148 145 177 203 185 167
248 238 258 262 231 263 262 251 237 249 253 243 124 317 245 154 252 196 192 199 195 196 174 166 179 181 168 159 162 155 157 148 153 155 156 172 165 160 157 158 162 191 168 176
244 258 261 260 8 246 240 253 253 314 244 293 105 260 83 22 96 152 155 204 188 194 152 160 176 177 167 164 165 165 151 149 169 153 165 167 146 152 161 165 176 126 179 143
231 245 235 58 65 125 225 66 25 349 11 21 312 49 54 59 102 125 147 140 169 153 162 181 180 160 158 161 166 153 135 144 160 161 168 153 137 134 160 146 98 101 201 175
251 262 258 50 256 317 23 80 23 39 40 18 37 50 61 85 121 147 152 147 170 169 170 169 169 152 159 167 157 164 157 157 140 144 118 91 75 48 131 88 83 226 201 234
289 75 32 34 92 32 313 34 34 1 39 36 182 143 115 124 131 139 142 153 171 171 165 152 167 164 160 167 176 169 161 166 163 150 138 146 161 184 126 133 144 217 223 231
263 256 146 130 137 162 212 58 4 30 57 348 180 124 140 136 141 139 141 155 164 152 141 159 160 168 181 170 150 158 165 171 157 160 157 168 171 193 172 125 218 233 231 225
252 232 148 168 110 120 134 98 72 70 39 29 313 143 283 140 130 157 167 142 146 154 162 166 164 168 162 153 161 171 174 173 167 165 172 180 183 136 173 83 31 238 207 211
323 5 136 119 110 120 105 76 55 50 73 59 41 38 5 315 23 234 157 175 174 161 165 172 175 160 166 171 176 175 172 174 175 167 173 174 179 157 42 73 70 56 55 62
360 7 94 139 122 87 93 59 45 41 26 47 59 52 31 26 50 15 224 175 185 165 158 167 180 174 157 166 182 174 177 171 158 172 178 187 193 196 191 72 71 60 76 74
341 52 109 132 119 82 52 20 173 49 30 37 354 15 29 357 176 13 249 223 205 201 149 161 177 178 171 172 177 168 181 158 173 187 191 193 199 200 190 181 185 172 147 116
221 320 256 115 103 85 74 315 45 17 4 356 357 26 35 8 302 324 296 235 221 226 185 164 190 176 165 171 168 172 164 180 196 204 202 194 191 196 195 186 197 192 157 187
148 145 82 102 100 94 99 49 27 18 353 3 357 353 331 282 266 274 256 225 250 207 194 159 193 166 164 152 178 186 175 190 206 214 189 197 202 207 207 205 200 204 177 189
150 139 149 142 119 109 90 57 26 25 11 0 339 337 316 318 302 286 267 308 240 293 262 148 155 160 176 168 183 178 194 187 219 222 197 197 210 208 213 207 214 217 210 212
122 145 128 121 125 106 79 60 50 29 23 359 344 358 9 345 323 327 319 300 243 243 229 158 154 172 179 188 195 202 199 174 186 222 208 194 217 222 218 222 226 223 216 130
133 120 115 105 90 87 72 54 47 47 27 23 13 19 7 355 341 332 348 299 251 236 204 129 123 184 188 185 203 213 207 193 181 215 218 205 202 232 223 228 224 223 231 152
138 127 117 113 117 113 106 69 41 39 28 17 22 39 22 12 1 349 326 326 353 353 312 141 162 212 200 151 216 246 201 223 212 199 204 215 212 212 243 245 265 236 220 231
144 148 136 146 135 146 136 81 19 32 19 17 16 21 34 345 29 24 10 40 19 356 334 141 173 217 205 129 199 248 240 197 225 208 201 214 224 238 225 232 215 241 220 224
154 154 158 141 184 157 178 222 45 3 5 5 2 18 353 51 13 81 69 65 12 2 352 99 64 29 39 142 220 229 255 272 225 250 344 45 246 294 280 267 242 228 250 240
146 146 150 180 196 101 155 237 217 243 328 355 344 360 37 8 16 39 68 57 83 12 23 41 49 76 54 243 250 233 217 237 228 229 231 239 227 236 253 254 271 259 251 258
165 165 162 92 185 201 31 266 349 40 348 309 353 15 37 89 342 76 99 102 155 174 50 95 129 95 353 285 5 15 350 311 303 279 245 253 250 266 14 72 43 20 19 339
189 157 178 199 220 159 217 210 234 163 159 109 133 172 285 100 141 148 109 102 172 239 127 138 160 184 222 230 237 236 235 243 262 258 225 177 129 125 84 62 56 269 237 286
191 226 128 146 138 188 256 227 252 56 83 105 107 102 101 124 139 185 114 346 151 225 209 157 175 196 186 193 199 221 231 230 225 235 225 227 180 196 197 241 251 245 255 262
212 26 138 239 188 179 355 29 351 21 229 112 156 174 154 148 90 333 327 128 310 300 240 359 186 186 231 156 207 176 163 182 199 211 213 219 220 228 220 214 214 222 230 242